User: anonymous   Login
Location: Unspecified
(0.0000°N, 0.0000°E)
Time: 22:14:23
(UTC+00:00)
Language:

STPSAT 2 (USA 217) - Orbit

View from above orbital plane
View from above orbital plane
View from above satellite
View from above satellite

Ground track
Ground track

The orbit data is extracted from the following two-line orbital elements,

1 37222U 10062A   17075.10129064 0.00000100  00000-0  13724-4 0    03
2 37222  71.9621  86.7947 0016284 321.6201  38.3799 14.78263881    08
Epoch (UTC): 16 March 2017 02:25:51
Eccentricity: 0.0016284
inclination: 71.9621°
perigee height: 623 km
apogee height: 646 km
right ascension of ascending node: 86.7947°
argument of perigee: 321.6201°
revolutions per day: 14.78263881
mean anomaly at epoch: 38.3799°
orbit number at epoch: 0

The dashed part of the orbit path shows where the satellite is in the earth's shadow,  

DLR